Wind_Speed
21 20 19 18 18 18 17 17 17 18 17 16 15 14 13 13 13 13 14 13 13 13 12 12 12 11 10 9 10 10 10 9 10 11 11 11 11 9 9 9 9 9 9 10 10 10 11 12 13 13 13 13 12 13 13 13 14 13 13 13 13 13 13 13 13 14 14 12 13 13 12 14 13 12 15 16 14 12 11 12 11 12 14 15 17
21 21 21 19 19 18 16 16 18 19 17 16 16 14 13 13 13 14 14 14 13 13 13 13 12 11 10 9 10 9 9 9 9 10 11 10 10 10 9 9 9 9 9 10 10 10 10 11 12 12 13 12 12 13 13 13 13 13 13 12 13 12 12 13 13 12 13 12 12 13 13 14 13 13 15 14 13 12 11 10 12 14 14 15 18
22 22 21 20 19 18 16 16 17 19 18 16 16 15 14 13 13 14 14 14 14 14 14 13 12 11 9 9 9 9 9 10 9 10 10 10 10 9 9 9 9 9 9 10 10 10 10 11 11 11 12 11 11 12 12 12 12 12 12 12 12 12 12 13 12 10 12 12 12 12 13 12 12 15 14 8 9 13 11 11 12 13 14 16 18
23 22 21 21 19 17 15 15 16 17 17 17 16 15 14 13 12 13 14 14 14 14 14 14 13 11 10 8 8 8 9 10 11 10 9 9 10 9 8 9 9 9 9 9 9 9 9 9 10 10 11 11 11 11 11 11 11 11 11 11 12 12 12 11 11 11 11 12 11 12 14 15 15 17 15 11 8 9 8 8 9 11 13 15 17
23 23 22 21 20 17 15 14 14 15 15 16 16 15 14 13 12 13 14 15 14 14 13 14 13 11 11 10 8 9 9 10 11 10 9 9 9 9 8 8 9 9 9 9 9 9 8 8 8 9 10 10 10 10 10 10 10 9 10 10 10 10 11 10 10 11 11 11 10 11 13 14 14 14 14 15 13 7 3 5 10 12 11 13 16
23 23 22 22 21 18 14 14 14 13 14 15 16 16 15 14 12 12 13 14 15 14 13 13 13 11 11 10 9 8 8 8 9 9 9 9 8 8 8 8 8 8 8 8 8 8 8 8 7 8 9 9 9 9 9 10 10 9 9 10 9 9 11 11 11 11 11 11 11 10 10 10 10 12 16 16 14 11 7 7 11 12 8 10 14
23 23 22 22 22 18 14 14 13 13 13 13 15 16 16 15 14 13 12 13 14 14 13 13 13 12 11 11 10 9 8 8 8 8 8 8 8 7 7 7 8 8 8 8 8 8 7 7 7 7 7 8 8 8 9 9 10 10 10 9 9 10 11 12 12 12 11 10 10 10 9 9 9 9 12 14 13 13 11 9 9 9 8 9 12
22 23 22 22 21 19 15 13 13 12 13 13 14 15 15 15 15 14 13 13 12 13 13 12 12 12 12 12 11 10 8 8 8 7 7 7 8 7 7 7 7 8 8 8 8 7 7 6 6 6 6 7 8 8 9 9 10 10 10 9 9 10 11 11 10 10 11 9 9 9 9 9 10 9 9 10 14 16 14 10 9 8 8 8 9
22 23 24 23 22 20 16 14 14 13 12 13 13 14 14 15 16 15 14 14 13 12 13 12 12 13 13 13 12 11 10 9 8 7 7 7 7 6 6 7 7 8 8 8 8 7 6 6 6 6 6 6 7 8 9 9 9 10 10 9 9 10 11 11 10 9 8 8 8 8 9 9 9 11 10 9 14 17 16 12 9 9 10 9 10
21 22 24 23 21 20 17 15 16 16 14 13 13 13 13 15 16 16 15 15 14 13 13 13 13 13 13 13 13 12 11 9 8 8 8 8 7 6 6 6 7 8 8 8 7 7 6 6 6 6 6 5 6 7 9 9 9 10 10 10 10 11 12 11 10 9 8 8 8 8 9 9 8 9 10 10 12 14 15 14 10 11 12 11 12
20 21 24 25 23 21 17 15 16 18 17 15 15 13 12 14 15 15 16 16 15 14 13 13 13 14 13 13 13 13 11 10 9 8 8 8 7 6 6 6 7 8 8 8 7 7 7 6 6 6 6 6 6 7 8 9 10 10 10 10 11 12 12 11 10 10 9 8 8 8 9 9 9 9 8 9 9 10 14 15 9 7 11 12 12
20 21 24 27 26 24 21 18 16 19 18 16 15 14 12 14 15 15 16 16 16 15 14 14 14 14 14 14 14 13 12 11 10 10 9 8 8 7 6 6 6 7 8 9 8 7 7 7 7 7 7 6 7 7 7 8 9 10 11 11 11 12 12 12 11 11 10 10 9 10 10 10 11 10 9 9 9 7 9 12 11 9 10 12 11
21 20 20 23 25 25 24 22 19 19 19 16 14 14 13 13 14 14 15 15 16 16 15 15 15 15 15 15 15 14 13 12 11 11 11 9 8 8 8 7 6 7 8 9 8 7 8 7 7 7 7 6 7 7 7 8 8 9 11 12 12 12 12 11 12 12 11 10 10 10 11 12 12 11 9 9 10 9 8 10 12 11 9 11 11
21 20 19 20 23 23 21 21 21 21 20 17 15 14 13 13 13 13 14 15 15 16 16 15 15 16 16 16 16 15 14 13 12 12 11 10 9 9 9 8 7 7 8 8 8 8 8 8 7 7 7 7 7 7 7 8 8 8 10 12 13 13 13 12 12 12 11 10 10 9 8 10 12 13 11 9 10 12 12 11 11 12 13 13 11
21 20 20 19 21 22 20 20 21 20 21 21 18 15 14 14 13 13 13 14 15 16 16 15 15 16 16 16 17 16 15 14 13 13 12 10 9 9 9 9 9 8 8 7 8 9 8 8 7 7 7 7 7 7 8 8 9 9 9 11 13 13 13 13 12 12 11 11 11 10 9 10 11 13 14 13 12 13 13 11 10 11 13 14 13
21 20 20 20 21 23 22 20 20 20 21 22 20 17 15 13 13 13 13 14 15 16 16 15 15 15 16 17 17 17 16 15 15 14 13 12 11 10 9 9 9 9 9 8 8 8 8 8 8 7 7 7 8 8 8 8 8 9 8 9 12 13 12 13 12 12 12 12 11 11 11 11 11 12 13 13 13 12 11 11 11 12 14 15 15
23 23 22 22 22 24 23 21 21 21 21 22 22 20 16 14 14 14 14 14 14 15 16 16 16 16 16 17 17 18 17 16 15 15 14 14 12 11 10 10 10 10 10 9 8 8 8 8 8 8 8 7 7 8 9 8 8 8 8 9 12 12 12 13 13 12 12 12 12 12 12 12 12 12 11 10 10 10 10 12 14 13 13 15 15
23 24 23 23 23 24 24 21 21 23 23 22 23 21 18 16 16 16 15 15 15 15 16 16 17 17 16 17 18 18 17 17 17 16 15 15 14 13 11 11 10 10 10 10 10 9 9 9 9 8 8 7 8 8 8 8 8 8 8 9 10 11 11 12 13 13 13 12 12 12 11 12 12 12 12 12 11 11 11 12 13 13 14 16 16
21 24 24 24 24 24 23 20 20 22 22 22 21 20 19 17 17 17 16 16 16 16 16 17 18 18 17 17 17 18 18 18 18 18 17 16 15 14 13 12 12 11 11 10 10 10 10 10 10 9 9 8 8 8 8 8 8 8 9 9 10 10 10 12 13 13 13 12 12 12 12 12 12 12 12 13 12 11 11 11 12 13 14 16 16
16 22 23 24 25 24 22 20 20 20 20 20 19 19 20 19 18 18 17 18 18 17 17 17 17 18 18 18 17 17 18 19 19 19 18 17 16 15 15 14 13 13 12 11 10 10 10 11 11 10 10 9 8 8 8 8 8 8 9 9 10 10 10 11 13 13 12 12 12 12 12 12 12 12 12 12 12 11 12 12 11 12 13 14 17
13 20 23 23 24 24 23 21 21 21 20 20 21 20 20 20 19 18 18 19 18 18 18 17 17 18 19 19 18 17 18 19 20 20 19 18 17 17 17 16 15 14 13 12 11 10 10 11 12 12 11 11 10 9 9 9 8 8 8 9 9 10 10 11 12 13 13 12 12 12 12 12 12 12 12 12 13 12 12 12 12 12 13 14 16
18 22 25 25 23 23 25 26 25 24 21 21 22 21 21 22 21 20 20 20 19 19 19 17 17 19 19 19 19 18 18 18 20 20 20 19 19 18 18 18 17 16 14 13 12 11 11 11 11 12 12 12 11 11 10 9 9 8 8 9 9 9 10 11 12 13 13 13 12 12 13 13 13 13 13 13 13 13 13 13 13 13 14 15 16
23 23 26 28 24 21 24 29 28 25 24 23 23 23 23 23 23 23 23 22 22 22 22 21 20 19 19 20 20 20 19 18 19 20 20 20 20 19 19 19 18 17 16 15 14 13 12 12 12 12 12 12 12 12 11 10 10 9 9 9 9 9 10 11 12 13 14 14 13 13 13 14 14 14 14 14 14 14 14 14 14 14 15 15 15
24 24 27 30 28 23 23 26 26 25 25 24 23 23 24 24 24 25 26 25 25 26 24 23 22 21 20 20 20 20 20 20 19 19 19 20 21 21 20 20 19 18 17 17 16 15 14 13 13 12 12 13 12 12 11 11 11 10 10 10 9 9 9 10 11 12 13 14 13 13 13 13 14 15 15 15 15 14 14 14 14 14 14 14 14
17 21 23 26 29 26 23 23 23 23 24 23 23 24 24 25 25 26 26 26 26 26 25 23 23 23 23 22 20 20 20 21 21 20 19 19 20 21 21 21 20 19 19 18 17 17 16 15 14 13 12 13 13 13 12 12 12 11 11 11 10 10 9 9 10 11 12 13 13 13 13 13 13 14 14 14 15 14 15 15 14 14 14 14 14
9 12 16 19 24 27 25 24 23 24 24 23 24 25 25 26 26 26 26 25 24 24 24 24 24 26 26 24 22 22 21 20 21 21 20 20 20 21 21 22 22 21 21 20 19 18 17 16 15 14 14 13 14 14 13 13 13 13 12 12 12 11 11 11 10 11 11 11 11 12 12 12 12 12 13 14 14 14 15 15 15 15 15 15 15
9 8 10 14 19 24 26 26 26 26 26 26 27 28 28 29 28 27 26 25 24 24 24 24 25 26 26 25 25 25 23 21 21 21 21 21 22 22 22 22 21 21 23 23 22 20 18 17 16 15 15 15 15 15 15 14 14 14 14 14 13 12 12 12 12 11 11 11 11 11 12 12 12 12 12 13 14 14 14 15 15 16 16 16 16
11 10 9 12 17 22 26 28 29 29 28 28 29 29 29 30 28 25 24 23 23 23 23 23 24 26 26 26 28 29 29 27 24 22 21 22 23 23 23 23 21 21 22 23 23 22 20 19 17 16 16 16 16 16 16 16 15 15 15 14 14 14 13 13 13 13 13 13 13 13 13 13 13 12 13 13 14 15 15 15 15 15 16 17 17
11 11 10 9 15 20 24 27 28 30 29 27 27 26 26 26 25 23 22 22 22 22 23 22 23 25 27 28 30 30 30 29 26 25 24 23 23 23 24 25 24 22 21 21 22 22 22 21 19 18 18 17 17 17 17 17 16 16 16 15 15 15 15 15 14 14 14 15 15 15 15 15 14 14 14 14 15 15 15 15 15 16 16 17 17
10 11 12 11 11 15 20 24 26 27 27 26 24 24 24 25 24 22 21 22 23 23 23 23 23 24 26 28 31 31 31 30 28 28 28 27 26 24 23 24 26 25 24 22 21 22 22 22 20 20 20 19 19 19 18 17 16 16 16 15 15 15 16 17 17 16 17 17 16 16 16 16 16 16 15 16 16 16 16 16 16 17 17 18 18
11 10 11 12 12 12 14 17 20 23 23 23 23 23 23 24 24 22 21 21 22 22 23 24 26 25 24 25 28 30 31 29 27 28 29 30 31 30 27 26 26 26 26 25 23 22 22 22 21 20 19 20 21 21 20 18 17 17 17 17 17 17 16 17 17 18 18 18 18 18 18 18 18 18 17 17 17 17 17 17 18 18 19 19 19
13 12 10 11 12 12 11 10 11 13 14 16 17 18 19 20 21 20 20 21 21 21 23 24 26 26 24 25 26 28 30 29 27 28 29 31 33 32 31 33 30 27 27 26 25 24 23 23 23 22 21 20 20 21 22 20 18 18 19 19 19 19 19 19 18 18 19 19 19 20 20 20 20 20 19 18 18 18 19 19 20 20 21 21 21
13 13 11 11 11 10 10 9 8 8 8 9 11 13 16 18 19 20 20 21 21 21 22 24 25 26 25 26 27 28 30 31 31 30 30 31 33 33 32 32 32 32 31 28 25 25 24 23 23 24 23 21 20 21 22 22 20 19 19 21 21 22 23 22 22 21 20 20 20 20 21 21 21 21 22 22 20 19 20 21 22 22 23 23 23
12 13 12 11 11 10 9 8 7 8 8 8 8 9 11 13 16 17 19 20 20 20 20 22 26 28 28 27 28 28 30 32 31 31 31 31 31 31 31 32 30 29 29 28 26 25 25 24 24 24 24 23 23 22 22 22 22 21 21 21 22 23 25 25 25 25 24 24 23 22 22 22 21 22 23 24 24 22 21 22 23 24 25 24 25
12 13 12 11 11 10 9 9 7 7 7 6 6 6 6 7 8 10 12 14 16 17 18 20 23 26 28 29 29 30 31 32 31 31 31 32 32 31 31 31 31 30 29 29 29 28 27 26 26 26 25 24 24 24 24 22 21 21 22 23 23 24 26 27 27 27 27 27 26 26 25 24 23 22 22 23 26 27 25 23 22 24 26 27 27
13 12 11 11 11 10 10 9 9 8 7 6 6 6 5 5 5 5 6 8 9 12 15 17 19 22 24 26 28 30 30 30 30 30 31 32 33 33 32 31 31 31 31 32 32 30 29 29 29 29 28 28 27 26 26 24 22 21 21 22 23 25 26 27 28 29 29 29 28 28 28 27 25 24 23 22 24 27 29 27 24 23 24 27 29
12 13 11 11 11 10 11 11 10 10 9 8 7 6 6 6 5 5 5 5 6 7 9 11 14 16 18 21 24 27 29 29 30 29 30 31 32 32 32 31 30 30 31 31 31 31 31 31 30 30 31 31 30 29 29 28 27 25 23 23 23 24 26 27 28 29 30 31 31 30 29 29 28 26 25 24 24 25 28 30 29 26 25 27 29
12 14 12 12 13 12 12 12 11 11 11 10 10 9 8 8 8 7 7 6 6 6 6 7 8 10 13 16 19 22 26 28 29 30 31 31 30 31 31 31 30 30 31 31 31 32 32 32 32 32 32 31 29 29 29 29 29 29 29 27 26 25 27 28 28 29 30 32 32 31 30 29 28 27 26 26 27 27 28 29 30 30 29 28 28
13 14 12 12 15 14 14 15 14 13 13 13 13 12 11 11 11 11 10 9 9 9 8 8 8 8 9 11 14 16 20 24 27 29 31 31 31 31 31 31 32 33 34 33 33 34 34 34 34 33 33 32 31 29 29 28 28 28 28 28 28 28 29 29 30 30 31 32 33 33 32 32 31 29 27 27 27 29 30 30 30 32 32 31 29
15 14 12 14 16 16 16 18 17 16 17 17 15 15 15 15 15 14 14 13 12 12 11 11 12 11 11 11 12 12 14 17 20 24 27 29 31 31 32 33 34 35 35 34 33 34 34 34 35 35 34 33 33 31 30 28 27 27 27 27 28 28 28 29 30 31 32 33 34 34 34 34 33 33 31 30 29 30 30 31 31 32 33 31 30
17 16 15 16 18 16 17 20 19 18 19 19 18 18 18 18 18 18 18 17 16 15 15 14 15 15 14 14 14 13 13 12 14 17 20 23 27 30 32 33 35 36 36 36 35 35 34 34 35 36 35 35 34 33 31 31 29 27 27 28 28 27 26 25 26 29 31 33 34 34 35 35 36 36 36 34 33 32 32 33 33 33 32 31 31
18 18 20 21 19 17 19 21 20 20 20 20 19 20 20 20 21 21 21 20 20 20 19 18 17 17 17 17 17 16 15 14 13 13 13 14 18 22 25 29 32 34 37 38 38 36 35 35 35 36 36 35 34 32 32 32 32 30 29 28 28 27 25 25 26 28 30 31 32 32 32 34 36 37 37 37 36 36 36 35 34 33 33 33 34
20 21 23 23 21 21 21 22 21 22 22 21 21 21 21 21 22 23 23 23 23 23 22 22 21 21 20 20 20 19 18 18 17 16 14 13 12 12 14 18 23 27 31 35 37 37 36 35 35 36 36 36 35 34 32 32 32 32 31 30 29 28 27 28 29 29 30 31 31 31 32 34 35 36 36 36 37 38 39 37 35 35 34 34 35
25 26 26 24 23 23 24 23 23 24 24 24 24 23 23 23 23 23 24 24 25 25 25 24 24 24 23 23 23 22 21 20 19 19 18 16 13 11 10 10 13 18 23 28 32 36 36 35 35 35 35 35 35 35 33 31 31 31 31 30 30 29 28 29 29 28 28 29 29 30 33 33 33 33 33 33 35 37 39 38 37 36 36 35 37
26 27 26 24 23 23 23 24 24 25 25 25 25 25 25 25 25 25 25 25 26 26 26 26 26 26 26 25 25 25 25 23 21 20 20 18 16 14 11 9 9 13 17 22 27 32 34 35 35 36 36 35 35 35 35 33 31 31 30 30 30 29 29 29 27 24 23 23 23 25 28 30 31 32 31 30 30 32 35 38 38 38 37 37 38
28 28 27 26 24 23 24 24 24 24 25 25 25 25 26 26 26 26 25 26 27 27 27 27 27 27 27 27 27 28 28 27 25 23 22 21 19 17 15 13 11 11 13 16 21 26 30 34 36 37 37 36 35 35 36 35 33 32 31 30 30 29 29 28 25 19 17 17 18 19 22 25 27 28 28 28 28 29 32 35 37 39 39 39 38
28 29 29 29 28 28 26 25 24 25 25 25 25 26 26 26 26 26 26 27 28 28 28 29 28 28 27 27 29 30 30 30 29 27 25 25 23 21 19 17 15 13 12 13 16 20 25 29 34 37 38 37 36 35 35 36 35 35 34 32 31 30 29 27 24 19 17 17 18 20 22 24 26 27 27 28 31 32 32 32 34 38 39 38 38
23 25 27 29 31 31 30 28 26 25 25 25 26 26 27 27 28 28 28 28 28 29 30 30 31 30 27 26 28 31 32 31 31 29 28 27 26 25 23 22 20 18 16 15 15 18 21 25 29 33 36 36 35 35 35 36 36 36 36 35 33 32 31 29 26 22 21 21 23 25 26 27 29 30 30 31 32 33 33 32 32 35 38 38 38
19 20 22 24 27 29 28 27 25 24 23 23 23 24 26 27 28 29 29 29 29 30 31 32 33 33 30 27 28 31 32 32 31 31 30 29 28 27 26 25 25 24 22 19 17 18 19 22 25 28 32 34 35 35 36 36 34 34 36 37 36 35 34 33 30 27 25 24 26 28 29 30 32 34 35 34 32 32 33 33 32 34 37 38 38
19 19 20 21 22 23 24 24 23 21 20 20 20 20 21 22 24 26 28 29 30 30 31 32 33 34 33 32 31 30 30 30 31 32 31 30 29 28 28 28 27 27 26 24 22 20 21 21 22 25 29 33 35 36 37 37 34 33 35 38 38 38 37 35 33 31 30 28 28 30 31 32 35 38 38 36 33 32 34 34 33 35 38 39 39
19 19 20 21 21 21 22 23 22 22 21 20 20 19 19 19 20 22 23 25 27 28 29 31 32 34 35 35 33 31 29 29 30 31 32 31 29 28 29 29 29 29 29 28 26 25 24 23 23 24 27 30 34 37 39 39 36 35 35 37 38 39 38 37 35 34 33 30 30 32 32 31 34 38 38 36 35 35 35 35 35 36 38 40 40
Wind_Direction
178 176 176 175 177 181 187 188 181 187 193 188 182 177 175 167 167 172 164 159 155 149 146 142 139 137 132 128 124 120 121 126 127 128 130 132 133 132 131 129 129 133 131 128 128 129 128 125 124 123 123 123 123 121 121 122 123 124 121 116 114 113 112 111 109 107 106 104 103 101 104 105 105 109 102 86 79 86 87 86 92 99 103 111 116
181 179 179 179 180 184 187 185 183 191 194 189 186 182 178 171 170 177 171 162 156 151 149 147 143 141 137 132 127 121 116 118 125 126 125 127 130 133 137 135 133 135 135 135 134 132 131 129 127 125 125 127 126 124 124 125 127 128 125 121 121 119 118 115 112 111 111 108 106 107 111 113 115 107 88 66 63 77 85 93 103 103 106 116 117
184 183 182 180 185 189 186 185 187 194 196 192 191 186 182 177 172 181 181 167 159 157 154 152 149 146 144 137 128 122 118 118 128 128 122 123 126 130 140 140 137 138 138 138 136 134 134 131 129 128 128 127 127 124 126 130 131 132 131 131 129 126 125 122 120 118 115 111 110 115 115 111 108 98 93 82 53 54 74 94 93 96 110 120 118
188 186 184 181 190 197 188 186 189 194 197 195 196 192 186 182 175 182 186 175 166 165 162 157 155 153 147 141 133 127 124 126 132 133 130 127 124 129 139 143 143 143 141 138 136 134 134 134 133 132 131 129 128 127 131 135 137 139 138 137 131 129 130 127 126 122 116 112 111 115 112 104 97 94 102 112 82 50 58 86 90 100 117 122 121
191 189 186 184 194 202 192 188 190 191 196 198 199 197 192 188 179 181 186 182 178 174 171 164 162 159 151 149 146 139 135 131 133 135 136 130 125 129 137 144 149 148 146 142 139 135 133 135 138 137 136 135 133 130 133 138 142 145 142 138 135 136 135 131 128 123 118 117 115 115 113 109 105 108 116 116 118 128 107 109 116 109 116 125 124
187 190 190 187 197 206 195 192 194 192 193 197 202 201 198 195 188 185 184 186 187 183 178 172 167 163 154 153 151 146 142 138 139 141 138 133 130 132 134 142 149 151 152 147 142 139 135 134 137 140 141 141 141 136 137 142 147 151 149 146 146 146 143 139 136 131 126 125 122 118 114 111 113 125 133 128 134 142 109 99 114 104 109 128 128
186 190 193 190 199 211 202 194 198 197 194 195 202 204 202 199 196 193 188 189 191 188 184 178 171 166 159 159 156 151 148 146 147 146 143 143 143 140 135 139 148 153 155 152 148 143 139 137 136 141 146 148 149 148 149 150 152 158 159 156 153 152 154 151 146 140 136 133 128 125 119 115 114 123 138 140 139 128 103 94 101 101 120 137 142
189 187 194 195 203 214 209 199 202 203 198 198 202 204 204 202 200 200 195 194 192 188 188 183 176 171 166 165 161 158 156 155 157 153 147 149 151 148 139 139 148 153 156 156 153 149 145 145 141 144 153 158 160 162 163 161 160 165 167 165 161 160 161 158 153 147 143 139 133 129 127 124 120 113 119 134 137 131 122 107 89 95 119 130 148
192 187 194 198 204 214 216 208 207 211 205 201 207 206 202 204 205 204 201 199 195 190 191 189 183 180 176 171 167 168 168 165 167 165 153 150 158 156 140 143 153 156 159 158 156 154 150 150 149 150 157 166 174 176 176 174 171 172 173 173 171 168 166 162 160 152 146 144 137 131 131 129 129 125 120 130 140 137 133 130 135 150 146 142 160
192 192 194 196 201 212 221 213 204 214 216 203 206 209 201 203 207 206 204 204 202 196 194 194 192 190 186 179 176 176 175 174 174 172 166 162 165 159 147 153 158 157 163 162 160 160 156 156 156 156 161 172 187 189 188 186 183 182 181 181 179 175 173 169 162 154 152 151 144 141 141 139 142 138 132 137 142 143 137 133 151 171 168 171 176
192 196 195 193 196 202 216 218 201 206 220 210 205 209 202 202 207 206 207 208 209 205 199 199 198 197 195 189 186 184 179 181 182 178 176 170 168 165 163 166 161 159 166 168 169 168 165 164 162 162 167 179 191 193 195 196 194 191 188 188 188 181 178 177 169 163 163 159 153 150 147 148 150 145 147 149 146 154 145 131 136 180 188 190 188
197 201 197 195 198 198 201 211 202 200 216 217 210 210 203 203 206 204 208 210 211 213 208 206 204 200 201 198 195 192 187 186 186 183 181 178 178 175 175 177 169 168 175 176 177 174 172 171 169 172 175 182 189 191 198 203 204 200 193 192 193 188 186 183 178 175 172 167 165 162 157 158 156 151 160 161 148 155 160 154 162 183 195 195 193
198 199 197 196 203 206 200 200 201 199 210 220 217 214 205 207 209 204 207 209 211 217 216 213 212 207 206 204 202 200 195 192 190 188 185 184 187 185 184 186 181 180 183 183 180 175 177 180 176 180 185 186 189 193 200 203 207 207 201 197 195 193 194 191 186 183 180 175 175 176 172 167 160 157 166 170 160 160 174 184 181 180 191 197 193
198 195 195 195 202 212 209 205 206 200 203 215 222 220 210 209 213 207 207 210 210 215 219 217 215 213 210 209 208 205 203 199 195 193 190 186 190 195 195 193 192 193 190 187 186 181 181 184 183 186 191 194 195 197 198 198 203 208 206 202 199 197 197 197 193 186 183 182 181 185 184 176 170 164 166 175 177 178 184 194 194 189 192 195 193
197 196 196 195 198 207 211 213 215 207 201 207 216 223 216 210 214 211 208 212 212 213 217 218 217 217 215 213 212 209 207 206 201 198 196 192 195 200 202 200 201 203 200 195 193 190 185 183 189 193 195 200 202 202 201 202 204 204 207 206 203 202 199 198 197 191 189 188 185 186 186 189 188 175 172 179 185 192 193 191 197 201 202 203 200
198 199 199 198 196 201 207 209 212 213 208 205 210 218 219 212 213 215 211 211 215 216 217 219 219 220 218 217 216 213 210 208 206 203 200 198 199 202 203 205 208 206 206 207 204 201 193 186 194 202 201 202 204 208 209 211 211 206 209 211 206 204 202 199 198 196 195 192 189 193 190 193 197 190 188 188 186 191 191 188 199 207 208 210 209
198 200 201 199 195 196 202 205 207 214 212 206 207 213 219 216 208 213 217 213 216 218 219 220 221 222 222 220 218 216 214 211 207 206 205 203 203 204 204 206 212 209 207 211 212 213 210 199 200 205 205 206 206 211 212 212 215 210 209 211 206 205 204 200 197 196 198 196 194 199 197 195 198 199 201 197 193 194 191 195 207 213 214 215 217
197 201 200 196 196 199 202 203 206 213 213 207 207 209 215 217 208 210 218 218 219 221 221 221 222 223 224 224 222 218 216 214 211 208 209 209 207 208 209 208 213 214 210 211 213 216 219 212 209 210 209 209 209 211 212 212 216 210 209 212 208 208 207 201 198 198 199 200 200 203 203 202 202 201 200 200 202 203 199 203 209 215 221 222 222
194 200 199 194 197 201 204 205 204 211 213 208 207 208 211 215 211 209 215 219 219 220 222 223 223 225 225 225 226 222 218 217 215 213 213 214 214 214 216 213 214 217 215 215 214 216 220 218 215 215 213 214 215 214 210 211 215 211 213 216 213 213 212 206 203 203 203 203 205 206 207 208 210 210 207 206 209 209 208 211 212 216 224 227 226
192 199 202 201 201 201 203 205 205 211 214 211 209 209 209 213 213 209 211 215 214 214 219 221 222 226 227 227 228 224 221 220 218 217 217 218 219 219 221 220 218 220 219 218 218 218 220 220 219 219 217 217 219 219 216 214 212 211 213 217 217 217 216 212 210 211 209 208 210 212 213 213 214 217 218 215 215 216 218 219 218 222 226 228 229
175 194 199 202 205 206 203 201 204 207 208 210 212 212 209 211 213 211 211 213 210 208 214 219 221 224 226 229 230 227 224 223 222 221 220 221 223 223 224 225 224 225 225 222 223 224 223 223 222 222 221 221 220 220 222 222 215 211 212 218 222 221 219 218 218 219 218 215 216 219 222 223 220 220 221 220 220 222 225 226 224 226 228 230 233
157 178 193 201 206 208 203 199 201 202 202 206 211 214 214 212 212 213 214 213 210 207 209 214 219 223 225 225 228 230 229 227 225 223 221 222 224 225 226 228 229 230 231 228 226 226 227 229 230 226 224 224 224 223 225 226 222 218 219 223 227 226 224 225 226 227 227 224 224 225 227 229 228 225 224 224 227 229 230 231 229 230 231 233 236
171 175 186 194 198 201 200 199 199 198 199 203 208 214 217 218 217 216 216 215 214 212 211 211 212 217 224 225 225 229 231 231 231 228 225 224 224 225 227 230 232 233 234 233 232 230 228 230 232 232 231 227 225 226 228 228 226 226 226 227 231 231 230 232 231 232 233 231 231 231 232 233 232 230 229 229 232 236 238 239 236 236 238 238 239
193 196 194 191 192 194 197 200 201 201 203 205 210 215 218 221 223 222 222 221 219 219 219 219 214 211 217 222 223 227 230 233 235 233 231 228 227 227 227 230 234 235 237 236 236 235 232 232 233 232 233 233 230 229 230 231 230 231 233 234 237 239 238 237 235 234 236 236 236 235 235 237 236 234 234 234 236 239 243 246 245 245 246 247 249
195 208 208 201 198 195 193 196 200 204 210 210 211 216 221 224 225 223 225 226 225 226 228 228 223 217 218 219 219 223 228 232 236 238 237 234 233 232 230 230 232 234 238 238 238 238 235 233 235 234 233 234 235 235 235 235 235 235 235 236 240 244 245 245 242 240 241 240 240 239 238 239 240 238 238 239 240 243 247 251 252 252 251 251 255
170 197 207 207 204 203 200 200 201 203 209 211 210 214 219 225 226 222 221 222 225 229 231 230 228 225 222 219 217 219 222 228 235 239 239 238 237 237 235 232 231 232 237 238 237 239 239 236 235 236 236 235 235 239 240 239 239 238 237 237 238 241 245 249 250 249 248 245 243 243 243 244 243 243 244 246 246 246 248 251 254 254 254 253 254
131 162 189 197 200 203 204 206 207 206 208 212 214 215 215 217 221 222 220 219 222 228 232 234 236 233 227 221 220 220 218 222 230 236 240 240 239 241 242 239 234 230 235 239 238 237 239 240 238 237 238 238 237 240 242 242 242 241 240 240 242 244 244 248 252 254 253 251 248 246 246 247 248 248 250 252 253 253 254 255 255 255 255 254 254
120 131 162 186 193 199 202 205 208 208 209 214 218 218 214 212 212 214 217 220 226 233 237 238 239 238 233 227 225 223 219 216 218 224 234 241 242 242 243 245 244 237 233 237 242 242 239 238 239 239 239 239 240 241 243 244 245 246 246 245 245 249 250 251 252 254 255 254 252 251 251 252 253 255 256 256 257 259 260 260 259 259 258 257 257
116 122 134 165 188 198 204 207 209 210 212 217 222 222 219 217 214 212 215 220 225 232 237 238 238 240 241 238 235 232 227 221 217 216 222 232 241 245 244 245 246 245 241 237 239 244 244 241 238 238 241 242 242 243 245 247 248 250 254 255 253 254 256 258 257 256 256 255 254 255 256 258 259 259 260 260 260 262 265 266 266 266 264 262 261
120 121 122 133 160 187 203 210 214 217 219 220 223 227 228 228 224 217 216 221 224 228 235 238 238 240 245 246 241 238 233 226 220 218 218 221 226 232 240 245 245 245 246 244 240 241 246 248 243 238 238 243 246 247 246 247 252 255 258 261 262 261 260 261 262 261 259 258 258 257 258 260 261 261 261 263 265 266 269 271 271 271 270 269 267
129 124 125 127 132 153 181 202 214 221 225 225 225 229 231 230 227 218 213 219 226 232 239 242 240 238 241 245 244 243 242 235 226 224 227 228 224 219 219 227 238 245 248 249 246 242 243 249 252 247 242 241 246 251 251 248 248 252 258 262 265 267 266 264 264 264 263 262 261 261 261 261 262 262 261 262 266 269 271 272 273 273 273 272 271
137 133 132 131 127 130 144 164 188 204 216 220 220 224 227 228 229 224 218 221 226 230 235 241 245 243 239 240 243 245 248 246 239 233 234 238 242 238 225 216 216 226 238 245 248 248 246 245 248 251 251 247 244 247 252 254 251 248 252 257 261 265 268 268 268 269 268 267 266 265 265 265 267 268 267 263 261 263 266 269 269 270 271 272 272
145 142 138 136 134 130 130 136 141 152 170 188 199 211 219 226 232 232 231 233 234 234 235 238 243 245 243 242 242 242 244 246 246 244 239 238 244 251 248 236 222 215 219 226 235 245 250 248 245 246 251 255 252 248 247 250 252 250 248 250 254 259 263 266 269 270 270 271 270 269 268 268 269 272 273 272 266 260 260 264 267 268 270 271 273
155 155 150 146 146 143 139 139 137 137 142 152 171 191 207 219 227 231 236 241 243 245 246 242 240 240 240 240 240 240 241 244 246 248 246 241 241 247 255 257 249 237 229 226 227 234 240 243 243 241 244 251 257 258 255 251 250 250 250 249 251 254 258 261 264 267 268 270 271 271 270 270 269 269 271 274 274 270 263 261 264 269 271 271 272
167 168 166 161 161 159 158 155 155 155 150 149 159 168 182 201 213 221 229 238 242 246 250 249 246 242 241 240 239 238 240 243 245 247 248 248 248 249 251 255 255 252 244 237 234 235 236 238 240 242 244 246 248 253 257 256 250 247 248 251 252 254 256 259 262 264 266 267 268 270 271 272 272 270 268 270 274 276 274 266 261 263 268 270 270
183 184 181 180 179 175 176 175 174 176 176 174 177 175 179 189 195 204 214 223 231 236 241 247 250 251 250 248 245 243 241 242 244 246 247 249 251 252 253 254 254 252 247 240 238 240 240 241 243 245 248 250 250 250 255 259 257 251 247 248 250 254 256 259 261 263 265 267 267 267 269 271 273 273 272 270 270 274 277 276 269 261 260 265 268
197 201 198 199 201 199 196 195 193 193 194 195 199 202 205 211 213 219 224 225 230 232 236 241 245 250 253 253 253 251 247 244 244 245 246 249 251 252 253 254 257 258 255 250 247 246 246 246 246 247 249 250 251 252 255 259 262 261 258 252 250 251 253 256 259 261 263 266 267 267 268 269 271 273 275 275 273 271 273 276 276 271 264 261 263
212 217 214 213 217 218 216 215 213 212 211 210 213 218 225 234 240 240 242 244 248 254 256 255 255 253 252 253 254 254 252 249 247 246 247 249 251 251 252 254 256 257 254 251 249 250 251 250 250 252 255 255 255 255 255 256 260 263 265 264 260 257 256 255 256 258 261 264 266 268 269 270 271 272 272 273 274 273 272 273 276 277 275 269 265
226 229 227 227 230 230 230 231 230 227 227 227 229 231 233 238 244 247 251 251 251 257 262 267 273 273 268 263 259 257 254 252 250 249 249 251 253 253 253 256 258 255 251 248 247 249 250 251 252 254 256 258 260 261 259 258 259 260 263 266 267 266 264 262 260 260 261 263 265 268 270 271 272 273 271 270 270 271 272 273 273 275 276 274 273
246 247 238 233 238 239 236 240 241 238 238 241 243 243 240 241 243 246 251 253 253 255 258 262 267 271 275 277 274 270 263 258 256 254 252 252 254 254 253 254 256 256 253 248 247 249 250 251 254 256 257 258 260 261 261 262 261 259 259 261 263 265 266 265 264 264 265 265 266 267 268 269 271 271 271 270 268 267 269 271 272 272 273 275 277
259 265 258 248 249 246 241 246 249 246 246 249 251 248 246 247 248 248 250 252 254 255 255 256 261 265 269 272 276 278 277 272 269 263 258 256 255 255 255 253 254 257 257 252 248 249 251 252 254 256 258 260 261 260 261 261 260 260 260 259 260 262 264 263 262 263 265 267 268 270 271 271 271 270 269 268 266 264 263 264 265 267 270 273 275
261 265 266 263 263 259 254 256 257 254 253 253 253 252 251 252 252 252 252 253 253 254 254 254 256 259 264 267 270 274 276 277 279 278 274 269 262 260 261 258 256 259 261 257 252 251 253 253 254 256 258 261 263 263 263 262 261 261 261 260 261 262 262 260 258 258 260 262 265 268 271 271 270 270 271 271 270 267 263 261 260 261 264 267 269
266 266 267 267 268 268 265 265 265 264 263 261 258 257 256 255 255 256 257 257 256 255 254 254 255 256 258 262 265 269 271 272 276 279 280 281 278 275 273 265 257 257 258 257 254 253 253 253 254 256 258 261 264 265 265 265 264 263 261 260 261 261 260 260 260 260 261 262 262 263 266 269 269 271 273 275 274 272 268 265 262 260 259 260 263
267 268 267 267 267 266 265 266 266 267 267 267 266 265 263 262 260 260 260 260 260 259 257 256 256 256 256 258 260 263 266 268 271 274 276 278 283 288 291 281 263 252 248 248 248 249 251 253 254 256 257 259 262 263 264 266 266 264 262 261 260 260 259 259 260 261 263 265 267 268 271 272 272 274 276 277 278 276 273 269 265 263 261 259 258
265 265 264 264 263 263 262 263 264 265 266 267 267 267 266 266 265 264 264 263 262 262 261 259 257 257 257 257 257 258 260 262 264 268 271 274 277 281 285 288 277 261 250 245 244 246 249 251 252 255 256 256 258 259 262 264 265 265 264 263 260 257 256 258 259 259 262 267 274 279 281 278 275 274 275 277 277 277 276 273 269 264 261 259 257
265 264 263 262 261 260 259 260 262 264 265 266 267 267 268 268 268 268 268 267 267 266 265 263 260 258 257 257 257 257 258 259 259 260 264 268 270 271 273 276 278 276 268 259 252 250 250 251 252 253 254 254 255 257 259 261 262 264 264 263 259 254 251 254 255 255 258 266 277 287 291 290 286 280 277 276 272 269 271 272 270 266 262 258 258
264 265 265 264 263 260 259 259 260 263 265 266 268 269 270 271 271 271 271 270 270 271 270 268 265 261 258 258 258 258 257 257 257 257 258 261 263 264 266 268 269 269 271 269 263 256 253 251 251 251 252 253 253 255 258 260 261 263 263 261 257 252 250 250 250 250 255 265 275 285 292 295 295 292 290 288 282 273 268 268 269 268 262 257 257
266 267 267 265 264 262 261 261 261 263 266 267 269 270 271 272 272 272 273 273 273 273 273 273 272 268 264 260 259 259 259 258 258 257 255 256 258 259 260 262 264 264 263 265 267 263 258 254 252 250 249 249 249 250 254 258 259 261 261 259 256 255 254 252 249 250 255 262 268 274 280 285 287 288 290 293 290 281 272 267 266 264 260 256 256
265 268 268 268 267 266 265 264 264 264 264 266 268 269 271 272 272 272 272 272 272 273 274 275 275 274 272 268 262 261 261 261 260 259 256 254 254 255 254 255 258 261 261 260 262 265 264 260 257 254 251 248 246 246 249 252 255 258 259 257 255 255 256 255 254 253 255 259 263 267 272 276 279 280 282 286 290 287 278 270 264 259 255 253 253
260 263 267 269 270 270 269 268 267 265 264 264 266 269 272 273 273 273 272 272 272 272 273 274 276 277 277 274 270 267 266 265 263 262 260 256 253 252 251 250 250 254 257 257 256 258 262 263 261 259 256 253 249 247 247 249 249 251 255 257 257 257 257 257 256 254 254 257 262 266 269 273 276 278 277 277 282 285 282 277 270 261 255 255 255
258 259 261 264 266 269 270 270 270 271 270 269 270 272 274 275 276 276 275 275 275 274 273 273 274 276 277 277 276 275 272 269 267 265 264 260 255 251 249 248 247 247 250 253 252 251 255 260 261 261 260 259 256 253 251 250 248 247 249 253 257 260 260 260 257 253 252 254 258 262 266 269 273 275 274 272 275 279 281 282 279 270 262 260 260
Height
3189 3190 3191 3192 3193 3194 3195 3196 3198 3199 3200 3201 3202 3203 3204 3205 3206 3207 3209 3210 3211 3212 3213 3214 3215 3216 3216 3217 3218 3219 3221 3221 3222 3223 3224 3224 3225 3225 3226 3227 3227 3228 3229 3230 3231 3232 3233 3234 3235 3236 3236 3237 3238 3239 3239 3240 3241 3242 3242 3243 3243 3244 3245 3246 3247 3247 3248 3248 3249 3249 3250 3250 3250 3251 3251 3251 3252 3253 3254 3254 3254 3256 3256 3256 3257
3190 3191 3191 3192 3193 3194 3194 3196 3197 3199 3200 3201 3202 3203 3204 3205 3206 3208 3209 3210 3211 3212 3213 3214 3215 3216 3217 3218 3219 3220 3221 3222 3222 3223 3224 3225 3225 3226 3227 3227 3228 3229 3230 3231 3232 3232 3233 3234 3235 3236 3237 3237 3238 3239 3240 3241 3242 3242 3243 3244 3244 3245 3245 3246 3247 3248 3248 3249 3250 3250 3250 3251 3251 3251 3251 3253 3255 3255 3255 3256 3256 3257 3258 3258 3259
3189 3191 3191 3192 3193 3193 3194 3196 3197 3198 3200 3201 3202 3204 3205 3206 3207 3208 3209 3210 3211 3212 3213 3214 3215 3216 3217 3218 3219 3220 3221 3222 3223 3223 3224 3225 3225 3226 3227 3228 3228 3229 3230 3231 3232 3233 3233 3234 3235 3236 3237 3238 3239 3240 3241 3242 3242 3243 3243 3244 3245 3245 3246 3247 3248 3249 3249 3249 3250 3251 3251 3252 3252 3251 3252 3255 3257 3256 3257 3257 3258 3258 3259 3260 3261
3189 3190 3191 3192 3193 3193 3194 3196 3197 3198 3199 3201 3202 3204 3205 3206 3207 3208 3210 3211 3212 3212 3213 3214 3215 3216 3217 3219 3219 3220 3221 3222 3223 3224 3224 3225 3226 3226 3228 3228 3229 3229 3230 3231 3232 3233 3234 3234 3235 3236 3237 3238 3239 3240 3241 3242 3243 3243 3244 3245 3245 3246 3247 3248 3248 3249 3250 3250 3251 3251 3251 3252 3253 3253 3255 3257 3258 3259 3259 3259 3260 3260 3261 3262 3263
3189 3190 3191 3192 3193 3193 3194 3196 3197 3198 3199 3201 3203 3204 3205 3206 3207 3208 3210 3211 3212 3213 3214 3214 3215 3216 3217 3218 3220 3221 3221 3222 3223 3224 3224 3225 3226 3227 3228 3228 3229 3230 3230 3231 3232 3233 3234 3234 3235 3236 3237 3238 3239 3240 3241 3242 3243 3244 3244 3245 3246 3246 3247 3248 3249 3250 3250 3251 3252 3252 3252 3252 3253 3254 3256 3258 3258 3260 3261 3261 3261 3262 3263 3264 3264
3189 3190 3191 3192 3193 3193 3195 3196 3197 3198 3200 3201 3203 3204 3205 3207 3208 3209 3210 3211 3212 3213 3214 3215 3216 3216 3217 3218 3219 3221 3221 3222 3223 3224 3224 3225 3226 3227 3228 3229 3229 3230 3231 3231 3232 3233 3234 3235 3235 3237 3237 3238 3240 3241 3242 3243 3243 3244 3245 3246 3246 3247 3248 3249 3249 3250 3251 3252 3252 3253 3253 3253 3254 3255 3256 3258 3259 3260 3261 3262 3262 3263 3264 3265 3265
3188 3190 3191 3192 3193 3193 3194 3196 3197 3199 3200 3201 3203 3204 3205 3207 3208 3209 3210 3211 3212 3213 3214 3215 3216 3217 3217 3218 3219 3220 3221 3222 3223 3224 3225 3226 3227 3227 3228 3229 3229 3230 3231 3231 3232 3233 3234 3235 3235 3236 3237 3238 3240 3241 3242 3243 3244 3244 3245 3246 3247 3247 3248 3249 3250 3250 3251 3252 3253 3253 3254 3254 3255 3256 3256 3257 3259 3260 3261 3262 3264 3264 3265 3266 3266
3187 3189 3191 3192 3192 3192 3194 3196 3197 3199 3200 3201 3202 3204 3205 3207 3208 3209 3210 3211 3212 3214 3215 3216 3217 3217 3218 3218 3219 3221 3221 3222 3223 3224 3225 3226 3226 3227 3228 3229 3229 3230 3231 3232 3232 3233 3234 3235 3235 3236 3237 3238 3239 3240 3241 3242 3243 3244 3245 3246 3247 3248 3249 3250 3250 3251 3251 3252 3253 3254 3254 3255 3256 3257 3257 3258 3259 3260 3262 3263 3264 3265 3266 3266 3267
3186 3188 3190 3191 3192 3193 3194 3196 3197 3198 3200 3201 3202 3203 3205 3206 3208 3209 3210 3211 3212 3214 3215 3216 3217 3218 3218 3219 3220 3221 3222 3222 3223 3224 3225 3226 3227 3228 3228 3229 3229 3230 3231 3232 3233 3233 3234 3235 3235 3236 3237 3238 3239 3240 3241 3242 3243 3244 3245 3246 3247 3248 3249 3250 3251 3252 3252 3253 3254 3254 3255 3256 3257 3257 3258 3259 3260 3260 3262 3263 3265 3265 3266 3267 3267
3185 3187 3189 3190 3192 3193 3193 3195 3197 3198 3199 3201 3202 3203 3204 3206 3207 3208 3210 3211 3212 3213 3215 3216 3217 3218 3218 3219 3220 3220 3222 3222 3223 3224 3225 3226 3227 3227 3228 3229 3230 3230 3231 3232 3233 3233 3234 3235 3236 3236 3237 3238 3239 3240 3241 3242 3243 3244 3245 3246 3247 3249 3249 3250 3251 3252 3253 3254 3254 3255 3256 3256 3257 3258 3258 3260 3260 3261 3261 3263 3265 3266 3267 3267 3268
3184 3186 3187 3188 3190 3192 3193 3195 3197 3198 3199 3200 3202 3202 3204 3205 3206 3208 3209 3211 3212 3213 3214 3215 3216 3217 3218 3219 3220 3220 3221 3222 3223 3224 3225 3226 3226 3227 3228 3229 3230 3230 3231 3232 3233 3234 3234 3235 3236 3237 3237 3238 3239 3240 3241 3242 3243 3244 3245 3246 3247 3248 3249 3250 3251 3252 3253 3254 3254 3255 3256 3257 3258 3259 3259 3260 3261 3262 3262 3263 3265 3266 3267 3267 3268
3182 3184 3185 3186 3189 3190 3191 3194 3196 3198 3199 3199 3201 3202 3203 3205 3206 3207 3208 3210 3211 3213 3214 3215 3216 3217 3218 3219 3220 3221 3221 3222 3223 3224 3225 3226 3227 3227 3228 3229 3230 3230 3231 3232 3233 3234 3234 3235 3236 3237 3238 3239 3239 3240 3241 3242 3243 3244 3245 3246 3247 3248 3249 3250 3251 3252 3253 3254 3254 3255 3256 3257 3258 3259 3260 3260 3261 3262 3263 3263 3264 3265 3267 3267 3268
3180 3182 3183 3186 3188 3189 3190 3192 3195 3197 3198 3199 3201 3201 3203 3204 3205 3207 3208 3209 3211 3212 3213 3214 3215 3217 3218 3219 3220 3221 3221 3222 3223 3224 3225 3226 3227 3227 3228 3229 3230 3230 3231 3232 3233 3234 3235 3235 3236 3237 3238 3239 3240 3240 3241 3242 3243 3244 3245 3246 3247 3248 3249 3250 3251 3252 3253 3254 3255 3255 3255 3256 3258 3259 3260 3260 3261 3262 3263 3263 3264 3265 3266 3267 3268
3179 3181 3183 3185 3187 3189 3191 3193 3194 3196 3197 3199 3200 3201 3202 3204 3205 3206 3207 3209 3210 3211 3212 3214 3215 3216 3217 3218 3219 3220 3221 3222 3223 3224 3225 3226 3226 3227 3228 3229 3229 3230 3231 3232 3232 3233 3234 3235 3236 3237 3238 3239 3240 3240 3241 3242 3243 3244 3245 3246 3247 3248 3249 3250 3251 3252 3253 3254 3255 3255 3256 3257 3257 3258 3259 3260 3261 3262 3262 3263 3264 3265 3265 3266 3267
3179 3180 3182 3184 3186 3189 3192 3193 3195 3196 3196 3198 3200 3201 3201 3203 3204 3205 3207 3208 3209 3210 3212 3213 3214 3215 3217 3218 3219 3220 3221 3222 3223 3224 3225 3225 3226 3227 3228 3228 3229 3230 3231 3232 3232 3233 3234 3235 3236 3237 3238 3239 3240 3241 3241 3242 3243 3244 3244 3245 3247 3248 3249 3250 3251 3252 3253 3254 3254 3255 3256 3257 3257 3258 3258 3259 3260 3261 3262 3263 3264 3265 3265 3266 3267
3178 3179 3181 3182 3184 3188 3191 3192 3194 3196 3197 3197 3199 3201 3201 3203 3204 3205 3206 3208 3209 3210 3211 3212 3213 3214 3216 3217 3218 3219 3221 3222 3222 3223 3224 3225 3226 3227 3227 3228 3229 3230 3231 3231 3232 3233 3234 3235 3236 3237 3238 3239 3240 3241 3241 3242 3243 3243 3244 3245 3247 3248 3248 3249 3250 3251 3252 3253 3254 3255 3255 3256 3257 3258 3258 3258 3259 3260 3262 3263 3264 3264 3265 3265 3266
3176 3177 3179 3181 3183 3185 3187 3189 3191 3195 3197 3197 3198 3200 3201 3202 3203 3204 3205 3207 3208 3209 3210 3212 3213 3214 3215 3216 3217 3218 3220 3221 3222 3223 3224 3225 3225 3226 3227 3228 3229 3230 3231 3231 3232 3233 3234 3235 3236 3237 3238 3239 3240 3241 3241 3242 3243 3243 3244 3245 3246 3247 3248 3249 3250 3251 3252 3253 3254 3254 3255 3256 3257 3258 3258 3259 3260 3260 3261 3262 3263 3264 3264 3265 3266
3174 3176 3178 3181 3182 3183 3184 3187 3190 3193 3196 3196 3197 3199 3200 3201 3202 3203 3204 3206 3207 3208 3209 3211 3212 3213 3214 3215 3216 3218 3219 3221 3222 3223 3223 3224 3225 3226 3227 3228 3229 3230 3230 3231 3232 3233 3234 3235 3236 3237 3238 3239 3240 3240 3241 3242 3243 3243 3244 3245 3246 3247 3248 3249 3250 3251 3251 3252 3253 3254 3255 3256 3256 3257 3258 3258 3259 3260 3261 3261 3262 3263 3264 3265 3266
3173 3175 3177 3179 3181 3182 3185 3188 3190 3192 3194 3195 3197 3198 3199 3200 3201 3202 3203 3205 3206 3207 3208 3210 3211 3212 3213 3214 3216 3217 3218 3220 3221 3222 3223 3224 3225 3225 3226 3227 3228 3229 3230 3231 3231 3233 3234 3235 3236 3237 3238 3238 3239 3240 3241 3242 3243 3243 3244 3245 3246 3247 3248 3249 3250 3250 3251 3252 3253 3254 3255 3256 3256 3257 3257 3258 3259 3259 3260 3261 3262 3262 3263 3264 3265
3173 3175 3176 3178 3180 3181 3184 3186 3189 3191 3192 3193 3195 3197 3198 3199 3200 3200 3202 3203 3204 3206 3207 3208 3210 3212 3213 3214 3215 3216 3217 3219 3220 3221 3222 3223 3224 3225 3226 3226 3227 3228 3229 3230 3231 3232 3233 3234 3235 3236 3237 3238 3239 3240 3241 3242 3243 3243 3244 3245 3246 3247 3248 3249 3249 3250 3251 3252 3252 3253 3254 3255 3256 3257 3257 3258 3258 3259 3260 3260 3261 3261 3262 3263 3263
3171 3174 3176 3177 3179 3181 3183 3185 3187 3189 3191 3192 3193 3195 3197 3197 3198 3199 3200 3202 3203 3204 3206 3208 3209 3211 3212 3213 3214 3216 3217 3218 3219 3220 3221 3223 3223 3224 3225 3226 3227 3227 3228 3229 3230 3231 3232 3233 3234 3235 3236 3237 3238 3239 3240 3242 3242 3243 3244 3245 3246 3246 3247 3248 3249 3250 3251 3252 3252 3253 3254 3254 3255 3256 3257 3258 3258 3259 3259 3260 3260 3261 3261 3262 3262
3167 3171 3173 3176 3178 3180 3182 3183 3185 3187 3189 3190 3192 3193 3194 3196 3197 3198 3199 3200 3202 3203 3205 3207 3209 3210 3211 3213 3214 3215 3216 3217 3218 3219 3220 3222 3223 3224 3224 3225 3226 3227 3228 3229 3230 3231 3232 3233 3234 3234 3235 3237 3238 3239 3240 3241 3242 3243 3244 3244 3245 3246 3247 3248 3249 3250 3251 3251 3252 3253 3253 3254 3255 3256 3256 3257 3258 3258 3259 3259 3259 3260 3260 3260 3261
3166 3168 3170 3174 3177 3179 3181 3182 3183 3185 3186 3188 3189 3190 3192 3193 3195 3196 3197 3199 3201 3202 3204 3205 3207 3209 3211 3212 3213 3214 3215 3216 3217 3218 3219 3221 3222 3223 3224 3224 3225 3226 3227 3228 3229 3230 3231 3232 3233 3234 3235 3236 3237 3238 3239 3241 3242 3243 3243 3244 3245 3246 3247 3247 3248 3249 3250 3251 3252 3253 3253 3254 3254 3255 3256 3257 3257 3258 3258 3259 3259 3259 3259 3259 3260
3166 3166 3168 3171 3174 3178 3181 3182 3182 3183 3184 3185 3187 3188 3189 3191 3193 3194 3196 3197 3199 3200 3202 3204 3206 3207 3209 3211 3212 3213 3215 3216 3217 3218 3219 3220 3221 3222 3223 3224 3225 3226 3226 3227 3228 3229 3230 3231 3232 3233 3234 3235 3236 3238 3239 3240 3241 3242 3243 3244 3245 3245 3246 3247 3248 3249 3250 3251 3251 3252 3253 3253 3254 3255 3256 3256 3257 3257 3258 3258 3258 3259 3259 3259 3259
3164 3165 3167 3170 3173 3175 3178 3180 3180 3182 3183 3184 3185 3186 3188 3189 3191 3193 3195 3196 3197 3199 3201 3203 3205 3206 3207 3209 3211 3212 3214 3215 3216 3218 3219 3220 3221 3221 3222 3223 3224 3225 3225 3226 3227 3228 3229 3230 3231 3233 3234 3235 3236 3237 3238 3239 3240 3241 3243 3243 3244 3245 3246 3247 3248 3248 3249 3250 3251 3251 3252 3253 3253 3254 3255 3256 3256 3257 3257 3257 3258 3258 3258 3258 3258
3164 3164 3166 3168 3171 3173 3175 3176 3178 3180 3181 3182 3182 3183 3184 3186 3188 3191 3193 3194 3196 3198 3199 3201 3203 3204 3205 3207 3208 3210 3212 3214 3216 3217 3218 3220 3220 3221 3221 3222 3223 3224 3224 3225 3226 3227 3228 3229 3231 3232 3233 3234 3235 3236 3237 3238 3239 3241 3242 3243 3244 3244 3245 3246 3247 3248 3248 3249 3250 3251 3251 3252 3253 3254 3254 3255 3256 3256 3256 3257 3257 3257 3257 3258 3258
3164 3164 3165 3166 3169 3171 3172 3174 3176 3177 3178 3179 3179 3179 3180 3182 3185 3188 3190 3191 3193 3195 3197 3199 3201 3202 3204 3205 3206 3208 3210 3212 3214 3217 3218 3219 3220 3220 3221 3221 3222 3223 3224 3224 3225 3226 3227 3228 3230 3231 3232 3233 3234 3235 3236 3237 3238 3239 3241 3242 3243 3244 3245 3246 3246 3247 3248 3248 3249 3250 3250 3251 3252 3253 3254 3254 3255 3255 3255 3256 3256 3256 3257 3257 3257
3163 3164 3164 3165 3167 3168 3170 3172 3173 3175 3176 3177 3178 3178 3178 3179 3182 3185 3187 3189 3190 3192 3194 3197 3199 3201 3202 3203 3204 3205 3206 3208 3211 3214 3218 3219 3219 3220 3221 3221 3222 3223 3223 3224 3224 3225 3226 3227 3229 3230 3231 3232 3233 3234 3235 3236 3238 3238 3239 3241 3242 3243 3244 3245 3246 3246 3247 3248 3248 3249 3250 3250 3251 3252 3253 3253 3254 3254 3254 3255 3255 3255 3255 3256 3256
3163 3164 3164 3165 3166 3167 3168 3170 3171 3173 3174 3176 3177 3179 3181 3181 3182 3184 3185 3187 3188 3189 3192 3196 3198 3199 3201 3202 3202 3203 3205 3208 3210 3211 3213 3217 3218 3220 3221 3221 3221 3222 3223 3224 3224 3224 3225 3226 3228 3229 3230 3231 3232 3233 3234 3236 3237 3238 3239 3240 3241 3242 3243 3244 3244 3245 3246 3247 3247 3248 3248 3249 3250 3251 3252 3252 3252 3253 3253 3254 3254 3254 3254 3254 3255
3163 3164 3164 3165 3166 3166 3167 3168 3170 3172 3173 3174 3177 3179 3182 3184 3185 3184 3184 3186 3188 3188 3190 3193 3195 3196 3198 3199 3201 3203 3205 3208 3210 3209 3210 3212 3214 3216 3219 3221 3222 3221 3221 3222 3224 3224 3224 3225 3226 3228 3229 3230 3231 3232 3233 3235 3236 3237 3238 3239 3240 3241 3242 3242 3243 3244 3245 3245 3246 3247 3247 3248 3249 3250 3250 3251 3251 3252 3252 3252 3253 3253 3253 3253 3253
3163 3164 3165 3165 3166 3167 3167 3168 3169 3170 3172 3173 3175 3177 3180 3183 3184 3183 3183 3185 3186 3187 3189 3191 3192 3194 3196 3198 3199 3202 3204 3204 3204 3205 3208 3211 3211 3210 3211 3216 3220 3222 3222 3222 3222 3223 3224 3225 3225 3226 3228 3229 3230 3231 3232 3234 3235 3236 3237 3238 3238 3239 3240 3241 3241 3242 3243 3244 3245 3245 3246 3246 3247 3248 3249 3249 3250 3250 3251 3251 3251 3251 3252 3252 3252
3163 3164 3165 3165 3166 3167 3168 3168 3169 3169 3171 3173 3174 3175 3177 3180 3182 3182 3182 3183 3184 3185 3187 3188 3189 3191 3195 3196 3197 3200 3201 3200 3198 3200 3204 3210 3213 3212 3209 3208 3210 3214 3218 3221 3222 3222 3223 3224 3224 3225 3225 3227 3229 3230 3231 3232 3234 3235 3236 3236 3237 3237 3238 3239 3239 3240 3241 3242 3243 3243 3244 3244 3245 3245 3246 3247 3248 3249 3249 3249 3250 3250 3250 3250 3250
3163 3164 3165 3165 3166 3167 3167 3168 3169 3169 3170 3172 3173 3174 3176 3178 3180 3180 3181 3182 3183 3184 3185 3186 3186 3189 3191 3193 3194 3195 3196 3197 3198 3201 3203 3206 3210 3213 3213 3212 3209 3208 3209 3214 3218 3220 3221 3223 3223 3224 3224 3225 3226 3228 3229 3230 3231 3233 3234 3234 3235 3235 3236 3236 3237 3238 3239 3239 3240 3241 3242 3242 3243 3243 3244 3244 3245 3246 3247 3247 3247 3248 3248 3248 3248
3163 3164 3165 3166 3166 3167 3167 3168 3169 3169 3170 3171 3172 3173 3174 3176 3177 3178 3179 3180 3182 3183 3184 3184 3185 3186 3187 3188 3190 3191 3192 3193 3196 3201 3202 3203 3206 3209 3212 3214 3215 3214 3213 3214 3215 3216 3218 3219 3220 3221 3222 3223 3223 3224 3226 3227 3228 3229 3231 3232 3232 3233 3233 3233 3234 3235 3236 3236 3237 3238 3239 3240 3241 3241 3242 3242 3242 3243 3244 3245 3245 3246 3246 3246 3246
3162 3163 3164 3165 3166 3167 3167 3168 3168 3169 3169 3170 3171 3172 3173 3174 3175 3176 3177 3178 3179 3181 3182 3183 3183 3183 3184 3185 3186 3188 3189 3190 3193 3196 3198 3200 3203 3205 3207 3209 3211 3213 3215 3214 3214 3214 3214 3215 3216 3217 3217 3219 3220 3220 3220 3222 3224 3226 3227 3228 3229 3230 3230 3230 3231 3232 3232 3233 3234 3235 3235 3236 3237 3238 3240 3240 3240 3239 3240 3241 3242 3243 3243 3243 3244
3161 3162 3163 3164 3165 3166 3167 3167 3168 3168 3169 3170 3170 3171 3172 3173 3174 3174 3175 3176 3177 3178 3179 3180 3181 3181 3181 3182 3183 3185 3186 3188 3190 3193 3195 3197 3199 3201 3203 3204 3206 3207 3208 3209 3211 3211 3212 3212 3213 3213 3214 3215 3217 3217 3217 3218 3220 3222 3223 3225 3226 3227 3227 3227 3228 3229 3229 3230 3231 3231 3232 3233 3234 3235 3236 3237 3238 3238 3237 3237 3238 3240 3240 3240 3240
3160 3161 3163 3164 3165 3165 3166 3167 3167 3168 3168 3169 3169 3170 3171 3172 3172 3173 3174 3175 3176 3176 3177 3178 3178 3179 3179 3179 3180 3182 3183 3185 3188 3189 3191 3193 3195 3197 3198 3200 3202 3203 3205 3207 3208 3209 3209 3210 3210 3210 3211 3212 3214 3216 3217 3217 3218 3219 3220 3221 3222 3223 3224 3224 3225 3225 3226 3226 3227 3228 3229 3229 3230 3231 3232 3233 3235 3235 3235 3234 3234 3235 3236 3236 3237
3159 3160 3162 3163 3163 3164 3165 3165 3166 3167 3167 3168 3168 3169 3170 3170 3171 3172 3173 3173 3174 3175 3175 3176 3176 3177 3177 3177 3178 3179 3181 3183 3185 3186 3188 3189 3191 3193 3195 3196 3197 3197 3199 3201 3203 3205 3206 3207 3208 3208 3208 3209 3211 3212 3213 3214 3215 3216 3217 3219 3220 3220 3220 3221 3221 3222 3222 3223 3223 3224 3225 3226 3226 3228 3229 3230 3230 3231 3231 3231 3231 3231 3232 3232 3233
3157 3158 3160 3161 3161 3162 3163 3163 3164 3165 3165 3166 3167 3167 3168 3169 3169 3170 3171 3172 3172 3173 3173 3174 3174 3175 3175 3175 3176 3177 3179 3180 3181 3182 3184 3187 3188 3190 3191 3193 3193 3193 3193 3195 3197 3199 3201 3202 3204 3204 3205 3206 3207 3208 3209 3210 3211 3212 3213 3214 3215 3216 3217 3218 3218 3219 3219 3219 3220 3221 3222 3222 3223 3224 3225 3226 3226 3226 3226 3227 3228 3228 3228 3228 3229
3154 3156 3158 3159 3159 3160 3161 3161 3162 3163 3163 3164 3165 3166 3166 3167 3167 3168 3169 3170 3171 3171 3172 3172 3173 3173 3173 3174 3174 3175 3177 3178 3178 3179 3181 3183 3184 3186 3188 3189 3190 3190 3190 3192 3194 3195 3196 3198 3200 3201 3202 3203 3203 3204 3205 3206 3207 3208 3208 3209 3210 3210 3212 3213 3215 3215 3216 3216 3217 3217 3218 3218 3219 3219 3220 3221 3221 3221 3222 3222 3223 3223 3223 3224 3226
3151 3153 3154 3155 3156 3158 3158 3158 3159 3160 3161 3161 3163 3164 3164 3164 3165 3166 3166 3167 3168 3169 3169 3170 3171 3171 3171 3172 3172 3173 3174 3175 3176 3177 3178 3179 3180 3181 3183 3185 3187 3188 3189 3191 3192 3192 3193 3194 3195 3197 3198 3199 3199 3201 3202 3202 3203 3204 3204 3205 3205 3206 3207 3208 3209 3210 3211 3211 3212 3213 3214 3215 3215 3215 3215 3215 3216 3216 3216 3216 3217 3218 3219 3221 3222
3150 3150 3150 3151 3153 3155 3155 3155 3156 3157 3158 3159 3160 3161 3161 3162 3162 3163 3163 3165 3166 3166 3167 3167 3168 3168 3169 3169 3169 3170 3171 3172 3174 3174 3175 3176 3177 3178 3179 3180 3183 3185 3187 3188 3190 3190 3190 3191 3192 3193 3193 3194 3196 3197 3198 3198 3199 3199 3200 3200 3201 3202 3203 3203 3204 3204 3204 3205 3206 3208 3208 3209 3210 3211 3211 3212 3212 3212 3211 3211 3211 3212 3214 3216 3217
3147 3147 3148 3149 3150 3151 3152 3152 3153 3154 3155 3156 3157 3157 3158 3159 3159 3160 3160 3161 3162 3163 3164 3164 3165 3165 3166 3166 3166 3167 3168 3169 3170 3171 3172 3173 3174 3175 3176 3176 3178 3180 3182 3185 3187 3188 3188 3188 3188 3189 3189 3190 3192 3193 3194 3194 3195 3195 3196 3196 3197 3198 3198 3198 3198 3199 3200 3200 3201 3201 3202 3202 3204 3206 3207 3208 3208 3208 3208 3208 3208 3208 3209 3210 3211
3144 3144 3145 3147 3148 3148 3149 3149 3150 3150 3151 3152 3153 3154 3155 3155 3156 3157 3157 3158 3158 3159 3160 3161 3162 3162 3162 3163 3163 3163 3164 3165 3167 3167 3168 3170 3171 3172 3173 3173 3174 3175 3177 3179 3181 3182 3183 3184 3184 3185 3185 3186 3187 3187 3189 3190 3190 3191 3192 3192 3193 3193 3194 3193 3194 3195 3196 3197 3197 3197 3198 3199 3200 3201 3202 3203 3203 3204 3205 3205 3205 3204 3205 3205 3205
3141 3142 3143 3144 3146 3146 3146 3146 3147 3147 3148 3148 3149 3150 3151 3151 3152 3153 3154 3154 3154 3155 3156 3157 3158 3158 3159 3159 3160 3160 3160 3161 3163 3163 3164 3166 3168 3169 3170 3171 3171 3172 3173 3174 3175 3176 3178 3178 3179 3179 3180 3181 3181 3182 3183 3184 3185 3186 3187 3188 3188 3189 3189 3189 3189 3191 3192 3193 3193 3194 3194 3195 3196 3196 3197 3197 3197 3198 3200 3201 3201 3201 3201 3200 3199
3139 3139 3140 3141 3143 3143 3144 3144 3144 3144 3145 3145 3146 3146 3147 3148 3148 3149 3150 3150 3150 3151 3152 3153 3154 3154 3155 3155 3156 3156 3157 3158 3159 3160 3161 3162 3164 3165 3167 3168 3168 3169 3170 3170 3171 3172 3172 3173 3173 3173 3174 3175 3176 3177 3178 3179 3181 3182 3183 3184 3184 3185 3185 3185 3186 3187 3188 3189 3189 3190 3190 3191 3192 3192 3191 3191 3191 3191 3192 3193 3195 3196 3196 3196 3195
3136 3136 3136 3137 3138 3139 3140 3141 3141 3142 3142 3142 3143 3143 3143 3144 3144 3145 3145 3146 3146 3147 3147 3148 3149 3150 3151 3152 3152 3152 3152 3154 3155 3156 3157 3158 3160 3161 3163 3164 3165 3166 3166 3166 3167 3167 3168 3168 3168 3168 3168 3169 3171 3172 3174 3175 3176 3177 3179 3180 3180 3180 3181 3181 3182 3183 3184 3184 3184 3184 3185 3186 3187 3188 3187 3187 3186 3186 3186 3186 3188 3191 3191 3192 3192
3134 3133 3133 3133 3133 3134 3136 3137 3138 3139 3139 3139 3139 3140 3140 3140 3140 3141 3141 3142 3142 3143 3143 3143 3144 3145 3147 3148 3148 3147 3148 3150 3151 3152 3153 3154 3156 3157 3159 3160 3161 3161 3162 3163 3163 3163 3163 3163 3163 3163 3164 3164 3165 3167 3169 3170 3171 3172 3173 3174 3175 3176 3177 3177 3178 3179 3179 3178 3178 3179 3180 3181 3182 3183 3183 3183 3182 3182 3182 3181 3182 3184 3186 3187 3187
3132 3131 3130 3130 3130 3130 3131 3133 3134 3135 3136 3136 3136 3136 3136 3136 3136 3137 3137 3138 3138 3139 3139 3139 3139 3140 3141 3143 3143 3143 3144 3146 3147 3148 3149 3150 3152 3153 3154 3156 3156 3157 3158 3159 3160 3159 3159 3159 3159 3159 3159 3160 3161 3162 3163 3164 3166 3167 3168 3168 3170 3171 3172 3172 3174 3174 3173 3173 3174 3174 3175 3176 3177 3178 3178 3179 3178 3178 3177 3177 3177 3179 3181 3182 3182
3129 3129 3129 3128 3128 3128 3128 3129 3130 3131 3132 3133 3133 3133 3133 3133 3133 3133 3133 3133 3134 3134 3135 3135 3135 3135 3136 3137 3137 3138 3140 3141 3142 3143 3144 3145 3147 3148 3150 3151 3152 3152 3153 3154 3155 3156 3155 3155 3155 3155 3155 3155 3156 3156 3157 3158 3159 3161 3162 3163 3164 3166 3167 3168 3169 3169 3168 3168 3169 3169 3170 3171 3172 3172 3174 3174 3174 3174 3173 3173 3173 3174 3175 3177 3178
3127 3127 3127 3126 3126 3126 3126 3126 3126 3127 3128 3129 3129 3129 3130 3130 3130 3129 3129 3130 3130 3130 3131 3131 3131 3130 3130 3130 3132 3134 3135 3136 3137 3137 3138 3140 3142 3144 3145 3146 3147 3148 3148 3149 3150 3151 3151 3151 3151 3151 3151 3151 3151 3151 3152 3152 3154 3155 3157 3158 3159 3161 3162 3163 3164 3164 3163 3163 3164 3164 3165 3166 3167 3168 3169 3170 3170 3170 3169 3169 3169 3169 3170 3171 3172